Regional Weather Roundup
Issued by NWS

Home | Current Version | Previous Version | Text Only | Print | Product List | Glossary Off
Versions: 1 2 3 4 5 6 7 8 9 10 11 12 13 14 15 16 17 18 19 20 21 22 23 24 25 26 27 28 29 30 31 32 33 34 35 36 37 38 39 40 41 42 43 44 45 46 47 48 49 50

000
ASUS43 KOAX 210402
RWRNE

WEATHER ROUNDUP FOR NEBRASKA
NATIONAL WEATHER SERVICE OMAHA NE
1100 PM CDT WED AUG 20 2014

NOTES: SATELLITE DATA IS BEING USED TO AUGMENT CLOUD COVER ABOVE
       12000 FEET.
       "FAIR" INDICATES FEW OR NO CLOUDS BELOW 12,000 FEET WITH NO
       SIGNIFICANT WEATHER AND/OR OBSTRUCTIONS TO VISIBILITY.

  * THESE STATIONS DO NOT REPORT WEATHER SUCH AS RAIN...SNOW OR FOG.

NEZ001>004-019>022-054>056-210500-
NEBRASKA PANHANDLE

CITY           SKY/WX    TMP DP  RH WIND       PRES   REMARKS
SCOTTSBLUFF    MOCLDY    73  58  59 CALM      29.88R
ALLIANCE       PTCLDY    68  53  58 SW6       29.86S
CHADRON        PTCLDY    69  52  54 CALM      29.81R
KIMBALL        LGT RAIN  64  58  81 S10G16    30.00R
SIDNEY         LGT RAIN  67  60  78 W14       29.96R
$$

NEZ057>060-069>072-079>082-210500-
SOUTHWEST NEBRASKA

CITY           SKY/WX    TMP DP  RH WIND       PRES   REMARKS
NORTH PLATTE   MOCLDY    73  61  65 S7        29.82R
IMPERIAL       MOCLDY    69  65  86 CALM      29.82F
LEXINGTON      MOCLDY    74  69  86 CALM      29.78S
MCCOOK         MOCLDY    81  59  47 N15       29.79R
OGALLALA       PTCLDY    67  60  78 N6        29.83R
$$

NEZ005>010-023>029-035>040-094-210500-
NORTH CENTRAL NEBRASKA

CITY           SKY/WX    TMP DP  RH WIND       PRES   REMARKS
VALENTINE      PTCLDY    78  64  61 SW10      29.74R
AINSWORTH      MOCLDY    77  71  81 S7        29.74F
BROKEN BOW     MOCLDY    72  68  87 CALM      29.75F
O`NEILL        PTCLDY    80  74  82 SW9       29.76R
ORD            MOCLDY    79  72  79 SW9       29.75R
THEDFORD       MOCLDY    77  62  59 S13       29.79S
$$

NEZ041-046>049-061>064-073>077-083>087-210500-
SOUTH CENTRAL NEBRASKA

CITY           SKY/WX    TMP DP  RH WIND       PRES   REMARKS
GRAND ISLAND   CLOUDY    81  70  69 S10       29.75F
AURORA         CLOUDY    80  73  78 S9        29.76F
HASTINGS       CLOUDY    81  65  58 S10       29.77R
HEBRON         CLOUDY    82  67  59 S14       29.78S
HOLDREGE       CLOUDY    81  65  58 S21G26    29.80R
KEARNEY *      CLOUDY    79  68  69 S12       29.77R
$$

NEZ011>018-030>034-042>045-210500-
NORTHEAST NEBRASKA

CITY           SKY/WX    TMP DP  RH WIND       PRES   REMARKS
NORFOLK        PTCLDY    80  69  69 SE13      29.74F
ALBION         CLEAR     76  70  81 SE7       29.75F
BLAIR          CLEAR     81  72  74 SE10G17   29.79S
COLUMBUS *     CLEAR     79  70  73 SE9       29.76F
FREMONT        CLEAR     82  72  72 SE12      29.77F
TEKAMAH        CLEAR     79  73  82 SE12      29.76F
WAYNE          PTCLDY    77  74  89 SE9       29.76S
$$

NEZ050>053-065>068-078-088>093-210500-
SOUTHEAST NEBRASKA

CITY           SKY/WX    TMP DP  RH WIND       PRES   REMARKS
LINCOLN        PTCLDY    83  69  62 S12       29.77S
OMAHA EPPLEY   PTCLDY    81  72  74 SE16      29.78S
BEATRICE       PTCLDY    83  70  65 S10G16    29.79S
FALLS CITY     CLEAR     81  73  76 S7        29.81R
NEBRASKA CITY  CLEAR     78  73  85 S9        29.81R
PLATTSMOUTH    CLEAR     80  72  77 SE10      29.80R
$$

NEZ044-045-051>053-067-210500-
OMAHA AREA

CITY           SKY/WX    TMP DP  RH WIND       PRES   REMARKS
OMAHA EPPLEY   PTCLDY    81  72  74 SE16      29.78S
BLAIR          CLEAR     81  72  74 SE10G17   29.79S
FREMONT        CLEAR     82  72  72 SE12      29.77F
MILLARD        CLEAR     80  73  79 SE6       29.78S
OFFUTT AFB     CLEAR     79  77  94 SE9       29.79R
PLATTSMOUTH    CLEAR     80  72  77 SE10      29.80R
WAHOO          FAIR      78  72  81 SE7       29.77F
$$


USA.gov is the U.S. government's official web portal to all federal, state and local government web resources and services.